Moron de la Frontera, Spain

9:19 PM CEST on April 25, 2017 (GMT +0200)
Moron Air Base

Weather History for LEMO - May, 2013

Change the Weather History Date:

Tuesday, May 14, 2013

  Actual Average Record
Temperature  
Mean Temperature 74 °F -  
Max Temperature 84 °F 82 °F 100 °F (2012)
Min Temperature 64 °F 57 °F 46 °F (2007)
Cooling Degree Days 9    
Growing Degree Days 24 (Base 50)    
Moisture  
Dew Point 59 °F    
Average Humidity 63    
Maximum Humidity 83    
Minimum Humidity 42    
Precipitation  
Precipitation 0.00 in - - ()
Sea Level Pressure  
Sea Level Pressure 29.86 in    
Wind  
Wind Speed 5 mph ()    
Max Wind Speed 17 mph    
Max Gust Speed 21 mph    
Visibility 6.2 miles    
Events Rain    
Averages and records for this station are not official NWS values.
T = Trace of Precipitation, MM = Missing Value Source: Averaged Metar Reports

Daily Weather History Graph

Daily Weather History Graph

Search for Another Location

Airport or City:

Trip Planner

Search our weather history database for the weather conditions in past years. The results will help you decide how hot, cold, wet, or windy it might be!

Date:

Astronomy

May. 14, 2013 Rise Set
Actual Time 7:14 AM CEST 9:23 PM CEST
Civil Twilight 6:45 AM CEST 9:52 PM CEST
Nautical Twilight 6:10 AM CEST 10:27 PM CEST
Astronomical Twilight 5:32 AM CEST 11:06 PM CEST
Moon 10:41 AM CEST (5/14) 12:21 AM CEST (5/14)
Length of Visible Light 15h 06m
Length of Day
14h 08m
Waxing Crescent, 17% of the Moon is Illuminated
May 14
Waxing Crescent
May 18
First Quarter
May 25
Full
May 31
Last Quarter
Jun 8
New

Hourly Weather History & Observations

Time (CEST) Temp. Heat Index Dew Point Humidity Pressure Visibility Wind Dir Wind Speed Gust Speed Precip Events Conditions
12:00 AM 71.6 °F - 57.2 °F 60% 29.95 in 6.2 mi Calm Calm - N/A   Scattered Clouds
1:00 AM 68.0 °F - 57.2 °F 68% 29.95 in 6.2 mi Variable 3.5 mph - N/A   Scattered Clouds
2:00 AM 68.0 °F - 57.2 °F 68% 29.92 in 6.2 mi Variable 4.6 mph - N/A   Scattered Clouds
3:00 AM 68.0 °F - 57.2 °F 68% 29.92 in 6.2 mi Variable 2.3 mph - N/A   Scattered Clouds
4:00 AM 68.0 °F - 57.2 °F 68% 29.89 in 6.2 mi Variable 2.3 mph - N/A   Scattered Clouds
5:00 AM 66.2 °F - 57.2 °F 73% 29.86 in 6.2 mi Variable 3.5 mph - N/A   Scattered Clouds
6:00 AM 66.2 °F - 57.2 °F 73% 29.86 in 6.2 mi Variable 1.2 mph - N/A   Scattered Clouds
7:00 AM 64.4 °F - 59.0 °F 83% 29.86 in 6.2 mi Variable 1.2 mph - N/A   Scattered Clouds
8:00 AM 64.4 °F - 59.0 °F 83% 29.89 in 6.2 mi South 5.8 mph - N/A   Scattered Clouds
9:00 AM 68.0 °F - 59.0 °F 73% 29.89 in 6.2 mi West 6.9 mph - N/A   Partly Cloudy
10:00 AM 71.6 °F - 59.0 °F 64% 29.92 in 6.2 mi WNW 6.9 mph - N/A   Partly Cloudy
11:00 AM 73.4 °F - 59.0 °F 61% 29.92 in 6.2 mi WNW 6.9 mph - N/A   Scattered Clouds
12:00 PM 73.4 °F - 59.0 °F 61% 29.92 in 6.2 mi Variable 3.5 mph - N/A Rain Light Rain
12:07 PM 73.4 °F - 59.0 °F 61% 29.92 in 5.6 mi SW 5.8 mph - N/A Rain Rain Showers
12:26 PM 73.4 °F - 59.0 °F 61% 29.92 in 6.2 mi South 5.8 mph - N/A   Scattered Clouds
1:00 PM 77.0 °F - 59.0 °F 54% 29.89 in 6.2 mi South 5.8 mph - N/A   Scattered Clouds
2:00 PM 77.0 °F - 59.0 °F 54% 29.86 in 6.2 mi South 5.8 mph - N/A   Scattered Clouds
3:00 PM 78.8 °F - 57.2 °F 47% 29.83 in 6.2 mi Variable 3.5 mph - N/A   Scattered Clouds
4:00 PM 82.4 °F 82.5 °F 59.0 °F 45% 29.80 in 6.2 mi SW 10.4 mph - N/A   Scattered Clouds
5:00 PM 84.2 °F 83.8 °F 59.0 °F 42% 29.77 in 6.2 mi Variable 3.5 mph - N/A   Partly Cloudy
5:20 PM 84.2 °F 84.4 °F 60.8 °F 45% 29.77 in 6.2 mi SW 9.2 mph 20.7 mph N/A   Partly Cloudy
6:00 PM 82.4 °F 82.9 °F 60.8 °F 48% 29.77 in 6.2 mi WSW 17.3 mph - N/A   Partly Cloudy
7:00 PM 78.8 °F - 62.6 °F 57% 29.77 in 6.2 mi West 17.3 mph - N/A   Partly Cloudy
8:00 PM 77.0 °F - 59.0 °F 54% 29.77 in 6.2 mi WSW 15.0 mph - N/A   Partly Cloudy
9:00 PM 73.4 °F - 60.8 °F 65% 29.80 in 6.2 mi West 8.1 mph - N/A   Scattered Clouds
10:00 PM 69.8 °F - 62.6 °F 78% 29.80 in 6.2 mi WSW 9.2 mph - N/A   Partly Cloudy
11:00 PM 68.0 °F - 60.8 °F 78% 29.80 in 6.2 mi SW 10.4 mph - N/A   Partly Cloudy